Showing default

GLOBALSTAR M040, 25622

Orbit data source: Space-Track

GLOBALSTAR M040, 25622 is a payload satellite owned by Globalstar (US) in LEO that was launched on Tue, 09 Feb 1999 UTC via a SOYUZ-U-PVB launch vehicle from the Tyuratam Missile And Space Complex (TTMTR). Payload-class satellites include a variety of spacecraft equipped with specific instruments for various scientific and technological missions. These include communications satellites like Starlink; space stations such as the ISS; scientific satellites like the Hubble; Earth observation satellites from companies like Planet Labs, Umbra, and HawkEye 360; GPS; miniature CubeSats for education and research; and military/defense satellites.

Loading next visibility...
Identifier
25622, 1999-004B
Orbit
LEO
Country
Flag of UnknownUnknown / GLOB
Related business
Manufacturer
SS/Loral
Mission
Non-operational Commercial Communications
Bus & Motor
LS-400, LS-400 AOCS
Mass
450 kg wet, 380 kg dry
Launch date (UTC)
1999-02-09 (27 years ago)
Launch vehicle
SOYUZ-U-PVB
Launch site
Tyuratam Missile And Space Complex (TTMTR)
Object type
Payload
Rocket body
Debris
Shape & HBR
Box + 2 Pan, 6.0 m
Radar Cross Section
5.587 m², Large (>1 m²)

Expand to show TLE details & history
Last TLE update: 12 hours ago

TLE from 12 hours ago
0 GLOBALSTAR M040
1 25622U 99004B   25258.40634045 -.00000077  00000-0  14830-3 0  9991
2 25622  51.9909 143.0103 0000208 163.6657   7.0667 12.62017032226648
Epoch: 2025-09-15T09:45Z
TLE epoch observation values (Epoch: 2025-09-15T09:45:07.814Z)
Latitude
7.26133°
Longitude
176.42952°
Altitude
1,414.504 km
Speed
7.155 km/s
True Right ascension
21h 09m 17s
True Declination
7° 13' 19"
Sunlit
Object was in full shadow at epoch
Visualization orbit readout
Latitude
Unknown
Longitude
Unknown
Altitude
Unknown
Speed
Unknown
Apparent Right ascension
Unknown
Apparent Declination
Unknown
Sunlit
N/A
Visualization observer readout
Local Sidereal Time
14:52:05
Azimuth
Unknown
Elevation
Unknown
Doppler factor
Unknown
Orbital elements
Apogee altitude
1,415.186 km
Perigee altitude
1,414.862 km
Semi-major axis
7,793.161 km
Eccentricity
0.00002
Inclination
51.9909°
RAAN
143.0103°
Arg. of periapsis
163.6657°
True anomaly
7.06699°
Mean anomaly
7.0667°
Eccentric anomaly
7.06685°
Mean motion
3.15481 °/min
Orbital period
114.11 mins
BSTAR
0.0001483
Loading maneuver chart data...
Computing Atmospheric mass density...
Loading historical data...
Loading historical data...
Loading historical data...
Loading historical data...
Loading historical data...
Loading historical data...
Loading historical data...
Other satellites on launch #4 in the year 1999 (1999-02-09 UTC)

Documentation

Showing up to 5 results
|